• In Deutschland
  • Länderverzeichnis
  • Für 7 Tage
  • Wassertemperatur
  • Satellitenkarten
  • Wetterkarte
  • Widgets
  • user-avatar
    Anmelden

    Stündliche Wetter Andora

    Heute, 16 August, Donnerstag

    Zeit Temperatur Niederschläge Wind Luftdruck Luftfeuchtigkeit
    00:00 +12°C° 0 mm 1 m/S 627 mmHg 82%
    01:00 +12°C° 0 mm 1 m/S 627 mmHg 83%
    02:00 +12°C° 0 mm 1 m/S 626 mmHg 84%
    03:00 +12°C° 0 mm 1 m/S 626 mmHg 85%
    04:00 +12°C° 0 mm 1 m/S 626 mmHg 84%
    05:00 +12°C° 0 mm 1 m/S 627 mmHg 84%
    06:00 +13°C° 0 mm 1 m/S 627 mmHg 83%
    07:00 +15°C° 0 mm 1 m/S 628 mmHg 74%
    08:00 +19°C° 0 mm 1 m/S 628 mmHg 64%
    09:00 +21°C° 0 mm 1 m/S 629 mmHg 54%
    10:00 +21°C° 0,3 mm 1 m/S 629 mmHg 54%
    11:00 +22°C° 0,3 mm 1 m/S 629 mmHg 54%
    12:00 +21°C° 0,3 mm 2 m/S 629 mmHg 54%
    13:00 +22°C° 1,3 mm 1 m/S 629 mmHg 55%
    14:00 +22°C° 1,3 mm 1 m/S 629 mmHg 55%
    15:00 +22°C° 1,3 mm 1 m/S 628 mmHg 55%
    16:00 +21°C° 1,1 mm 1 m/S 628 mmHg 60%
    17:00 +20°C° 1,1 mm 1 m/S 628 mmHg 65%
    18:00 +19°C° 1,1 mm 1 m/S 627 mmHg 70%
    19:00 +16°C° 0,7 mm 1 m/S 627 mmHg 75%
    20:00 +15°C° 0,7 mm 1 m/S 627 mmHg 80%
    21:00 +14°C° 0,7 mm 1 m/S 627 mmHg 85%
    22:00 +13°C° 1,1 mm 1 m/S 627 mmHg 87%
    23:00 +13°C° 1,1 mm 1 m/S 627 mmHg 89%

    Morgen, 17 August, Freitag

    Zeit Temperatur Niederschläge Wind Luftdruck Luftfeuchtigkeit
    00:00 +13°C° 1,1 mm 2 m/S 627 mmHg 91%
    01:00 +13°C° 0,5 mm 2 m/S 627 mmHg 91%
    02:00 +13°C° 0,5 mm 1 m/S 627 mmHg 91%
    03:00 +13°C° 0,5 mm 1 m/S 627 mmHg 91%
    04:00 +13°C° 0,2 mm 1 m/S 627 mmHg 90%
    05:00 +13°C° 0,2 mm 1 m/S 627 mmHg 90%
    06:00 +13°C° 0,2 mm 1 m/S 627 mmHg 90%
    07:00 +14°C° 0,1 mm 1 m/S 628 mmHg 84%
    08:00 +15°C° 0,1 mm 1 m/S 629 mmHg 79%
    09:00 +16°C° 0,1 mm 1 m/S 629 mmHg 74%
    10:00 +16°C° 0,4 mm 2 m/S 629 mmHg 72%
    11:00 +17°C° 0,4 mm 2 m/S 630 mmHg 70%
    12:00 +17°C° 0,4 mm 2 m/S 630 mmHg 68%
    13:00 +17°C° 0,5 mm 2 m/S 629 mmHg 69%
    14:00 +17°C° 0,5 mm 2 m/S 629 mmHg 69%
    15:00 +17°C° 0,5 mm 2 m/S 629 mmHg 69%
    16:00 +16°C° 0,6 mm 2 m/S 629 mmHg 73%
    17:00 +15°C° 0,6 mm 2 m/S 629 mmHg 78%
    18:00 +14°C° 0,6 mm 2 m/S 628 mmHg 82%
    19:00 +13°C° 0,2 mm 2 m/S 629 mmHg 85%
    20:00 +12°C° 0,2 mm 2 m/S 629 mmHg 87%
    21:00 +10°C° 0,2 mm 2 m/S 629 mmHg 89%
    22:00 +10°C° 0 mm 2 m/S 629 mmHg 89%
    23:00 +9°C° 0 mm 2 m/S 628 mmHg 89%

    übermorgen, 18 August, Samstag

    Zeit Temperatur Niederschläge Wind Luftdruck Luftfeuchtigkeit
    00:00 +8°C° 0 mm 2 m/S 628 mmHg 89%
    01:00 +8°C° 0 mm 2 m/S 628 mmHg 88%
    02:00 +7°C° 0 mm 2 m/S 628 mmHg 87%
    03:00 +7°C° 0 mm 2 m/S 627 mmHg 86%
    04:00 +7°C° 0 mm 2 m/S 627 mmHg 84%
    05:00 +7°C° 0 mm 2 m/S 628 mmHg 81%
    06:00 +7°C° 0 mm 2 m/S 628 mmHg 79%
    07:00 +10°C° 0 mm 2 m/S 629 mmHg 67%
    08:00 +13°C° 0 mm 2 m/S 630 mmHg 56%
    09:00 +16°C° 0 mm 2 m/S 631 mmHg 45%
    10:00 +17°C° 0 mm 2 m/S 631 mmHg 42%
    11:00 +18°C° 0 mm 2 m/S 631 mmHg 39%
    12:00 +19°C° 0 mm 2 m/S 632 mmHg 36%
    13:00 +19°C° 0 mm 2 m/S 631 mmHg 37%
    14:00 +20°C° 0 mm 2 m/S 631 mmHg 38%
    15:00 +20°C° 0 mm 2 m/S 631 mmHg 38%
    16:00 +18°C° 0 mm 2 m/S 630 mmHg 46%
    17:00 +17°C° 0 mm 2 m/S 630 mmHg 53%
    18:00 +16°C° 0 mm 2 m/S 629 mmHg 60%
    19:00 +14°C° 0,1 mm 2 m/S 629 mmHg 65%
    20:00 +12°C° 0,1 mm 2 m/S 629 mmHg 70%
    21:00 +10°C° 0,1 mm 2 m/S 629 mmHg 74%
    22:00 +9°C° 0 mm 2 m/S 629 mmHg 72%
    23:00 +9°C° 0 mm 2 m/S 629 mmHg 70%

    19 August, Sonntag

    Zeit Temperatur Niederschläge Wind Luftdruck Luftfeuchtigkeit
    00:00 +9°C° 0 mm 2 m/S 628 mmHg 68%
    01:00 +9°C° 0 mm 2 m/S 628 mmHg 66%
    02:00 +8°C° 0 mm 2 m/S 628 mmHg 64%
    03:00 +8°C° 0 mm 2 m/S 628 mmHg 62%
    04:00 +8°C° 0 mm 2 m/S 628 mmHg 63%
    05:00 +8°C° 0 mm 2 m/S 628 mmHg 63%
    06:00 +9°C° 0 mm 2 m/S 628 mmHg 64%
    07:00 +12°C° 0 mm 2 m/S 630 mmHg 57%
    08:00 +15°C° 0 mm 1 m/S 631 mmHg 49%
    09:00 +19°C° 0 mm 1 m/S 632 mmHg 42%
    10:00 +20°C° 0 mm 1 m/S 632 mmHg 40%
    11:00 +21°C° 0 mm 1 m/S 632 mmHg 37%
    12:00 +23°C° 0 mm 2 m/S 633 mmHg 35%
    13:00 +23°C° 0 mm 2 m/S 632 mmHg 35%
    14:00 +23°C° 0 mm 2 m/S 632 mmHg 36%
    15:00 +23°C° 0 mm 2 m/S 632 mmHg 36%
    16:00 +20°C° 0 mm 2 m/S 631 mmHg 43%
    17:00 +20°C° 0 mm 1 m/S 631 mmHg 49%
    18:00 +19°C° 0 mm 1 m/S 630 mmHg 56%
    19:00 +16°C° 0 mm 1 m/S 630 mmHg 60%
    20:00 +14°C° 0 mm 2 m/S 630 mmHg 65%
    21:00 +12°C° 0 mm 2 m/S 629 mmHg 69%
    22:00 +12°C° 0 mm 2 m/S 629 mmHg 68%
    23:00 +12°C° 0 mm 2 m/S 629 mmHg 68%

    20 August, Montag

    Zeit Temperatur Niederschläge Wind Luftdruck Luftfeuchtigkeit
    00:00 +12°C° 0 mm 2 m/S 629 mmHg 67%
    01:00 +10°C° 0 mm 2 m/S 629 mmHg 64%
    02:00 +10°C° 0 mm 2 m/S 629 mmHg 62%
    03:00 +10°C° 0 mm 2 m/S 628 mmHg 59%
    04:00 +10°C° 0 mm 2 m/S 628 mmHg 58%
    05:00 +10°C° 0 mm 2 m/S 629 mmHg 57%
    06:00 +10°C° 0 mm 2 m/S 629 mmHg 55%
    07:00 +14°C° 0 mm 2 m/S 630 mmHg 49%
    08:00 +18°C° 0 mm 1 m/S 631 mmHg 44%
    09:00 +21°C° 0 mm 1 m/S 632 mmHg 38%
    10:00 +22°C° 0 mm 1 m/S 633 mmHg 37%
    11:00 +23°C° 0 mm 1 m/S 633 mmHg 36%
    12:00 +24°C° 0 mm 1 m/S 633 mmHg 34%
    13:00 +24°C° 0 mm 1 m/S 633 mmHg 35%
    14:00 +24°C° 0 mm 1 m/S 632 mmHg 36%
    15:00 +24°C° 0 mm 2 m/S 632 mmHg 37%
    16:00 +23°C° 0 mm 1 m/S 631 mmHg 44%
    17:00 +21°C° 0 mm 1 m/S 631 mmHg 50%
    18:00 +20°C° 0 mm 1 m/S 630 mmHg 57%
    19:00 +18°C° 0 mm 1 m/S 630 mmHg 61%
    20:00 +16°C° 0 mm 1 m/S 630 mmHg 65%
    21:00 +15°C° 0 mm 2 m/S 629 mmHg 69%
    22:00 +14°C° 0 mm 1 m/S 629 mmHg 69%
    23:00 +14°C° 0 mm 1 m/S 629 mmHg 70%

    21 August, Dienstag

    Zeit Temperatur Niederschläge Wind Luftdruck Luftfeuchtigkeit
    00:00 +13°C° 0 mm 1 m/S 629 mmHg 70%
    01:00 +13°C° 0 mm 1 m/S 628 mmHg 70%
    02:00 +13°C° 0 mm 1 m/S 628 mmHg 69%
    03:00 +13°C° 0 mm 1 m/S 628 mmHg 69%
    04:00 +13°C° 0 mm 1 m/S 628 mmHg 68%
    05:00 +13°C° 0 mm 1 m/S 629 mmHg 68%
    06:00 +13°C° 0 mm 1 m/S 629 mmHg 67%
    07:00 +16°C° 0 mm 1 m/S 630 mmHg 59%
    08:00 +20°C° 0 mm 1 m/S 631 mmHg 52%
    09:00 +23°C° 0 mm 1 m/S 632 mmHg 44%
    10:00 +23°C° 0 mm 1 m/S 632 mmHg 43%
    11:00 +24°C° 0 mm 1 m/S 632 mmHg 42%
    12:00 +24°C° 0 mm 1 m/S 632 mmHg 41%
    13:00 +24°C° 0,2 mm 1 m/S 631 mmHg 45%
    14:00 +23°C° 0,2 mm 1 m/S 631 mmHg 49%
    15:00 +22°C° 0,2 mm 1 m/S 630 mmHg 53%
    16:00 +22°C° 0,3 mm 1 m/S 630 mmHg 56%
    17:00 +21°C° 0,3 mm 1 m/S 630 mmHg 59%
    18:00 +20°C° 0,3 mm 1 m/S 629 mmHg 63%
    19:00 +19°C° 0,1 mm 1 m/S 629 mmHg 66%
    20:00 +16°C° 0,1 mm 1 m/S 629 mmHg 69%
    21:00 +15°C° 0,1 mm 1 m/S 629 mmHg 73%
    22:00 +15°C° 0 mm 2 m/S 629 mmHg 73%
    23:00 +14°C° 0 mm 2 m/S 628 mmHg 74%
    Mehr zeigen